EHI
0 0 0 0 0 0 0 0 0 0 0 0 0 0 0 0 0 0 0 0 0 0 0 0 0 0 0 0 0 0 0 0 0 0 0 0 0 0 0 0 0 0 0 0
0 0 0 0 0 0 0 0 0 0 0 0 0 0 0 0 0 0 0 0 0 0 0 0 0 0 0 0 0 0 0 0 0 0 0 0 0 0 0 0 0 0 0 0
0 0 0 0 0 0 0 0 0 0 0 0 0 0 0 0 0 0 0 0 0 0 0 0 0 0 0 0 0 0 0 0 0 0 0 0 0 0 0 0 0 0 0 0
0 0 0 0 0 0 0 0 0 0 0 0 0 0 0 0 0 0 0 0 0 0 0 0 0 0 0 0 0 0 0 0 0 0 0 0 0 0 0 0 0 0 0 0
0 0 0 0 0 0 0 0 0 0 0 0 0 0 0 0 0 0 0 0 0 0 0 0 0 0 0 0 0 0 0 0 0 0 0 0 0 0 0 0 0 0 0 0
0 0 0 0 0 0 0 0 0 0 0 0 0 0 0 0 0 0 0 0 0 0 0 0 0 0 0 0 0 0 0 0 0 0 0 0 0 0 0 0 0 0 0 0
0 0 0 0 0 0 0 0 0 0 0 0 0 0 0 0 0 0 0 0 0 0 0 0 0 0 0 0 0 0 0 0 0 0 0 0 0 0 0 0 0 0 0 0
0 0 0 0 0 0 0 0 0 0 0 0 0 0 0 0 0 0 0 0 0 0 0 0 0 0 0 0 0 0 0 0 0 0 0 0 0 0 0 0 0 0 0 0
0 0 0 0 0 0 0 0 0 0 0 0 0 0 0 0 0 0 0 0 0 0 0 0 0 0 0 0 0 0 0 0 0 0 0 0 0 0 0 0 0 0 0 0
0 0 0 0 0 0 0 0 0 0 0 0 0 0 0 0 0 0 0 0 0 0 0 0 0 0 0 0 0 0 0 0 0 0 0 0 0 0 0 0 0 0 0 0
0 0 0 0 0 0 0 0 0 0 0 0 0 0 0 0 0 0 0 0 0 0 0 0 0 0 0 0 0 0 0 0 0 0 0 0 0 0 0 0 0 0 0 0
0 0 0 0 0 0 0 0 0 0 0 0 0 0 0 0 0 0 0 0 0 0 0 0 0 0 0 0 0 0 0 0 0 0 0 0 0 0 0 0 0 0 0 0
0 0 0 0 0 0 0 0 0 0 0 0 0 0 0 0 0 0 0 0 0 0 0 0 0 0 0 0 0 0 0 0 0 0 0 0 0 0 0 0 0 0 0 0
0 0 0 0 0 0 0 0 0 0 0 0 0 0 0 0 0 0 0 0 0 0 0 0 0 0 0 0 0 0 0 0 0 0 0 0 0 0 0 0 0 0 0 0
0 0 0 0 0 0 0 0 0 0 0 0 0 0 0 0 0 0 0 0 0 0 0 0 0 0 0 0 0 0 0 0 0 0 0 0 0 0 0 0 0 0 0 0
0 0 0 0 0 0 0 0 0 0 0 0 0 0 0 0 0 0 0 0 0 0 0 0 0 0 0 0 0 0 0 0 0 0 0 0 0 0 0 0 0 0 0 0
0 0 0 0 0 0 0 0 0 0 0 0 0 0 0 0 0 0 0 0 0 0 0 0 0 0 0 0 0 0 0 0 0 0 0 0 0 0 0 0 0 0 0 0
0 0 0 0 0 0 0 0 0 0 0 0 0 0 0 0 0 0 0 0 0 0 0 0 0 0 0 0 0 0 0 0 0 0 0 0 0 0 0 0 0 0 0 0
0 0 0 0 0 0 0 0 0 0 0 0 0 0 0 0 0 0 0 0 0 0 0 0 0 0 0 0 0 0 0 0 0 0 0 0 0 0 0 0 0 0 0 0
0 0 0 0 0 0 0 0 0 0 0 0 0 0 0 0 0 0 0 0 0 0 0 0 0 0 0 0 0 0 0 0 0 0 0 0 0 0 0 0 0 0 0 0
0 0 0 0 0 0 0 0 0 0 0 0 0 0 0 0 0 0 0 0 0 0 0 0 0 0 0 0 0 0 0 0 0 0 0 0 0 0 0 0 0 0 0 0
0 0 0 0 0 0 0 0 0 0 0 0 0 0 0 0 0 0 0 0 0 0 0 0 0 0 0 0 0 0 0 0 0 0 0 0 0 0 0 0 0 0 0 0
0 0 0 0 0 0 0 0 0 0 0 0 0 0 0 0 0 0 0 0 0 0 0 0 0 0 0 0 0 0 0 0 0 0 0 0 0 0 0 0 0 0 0 0
0 0 0 0 0 0 0 0 0 0 0 0 0 0 0 0 0 0 0 0 0 0 0 0 0 0 0 0 0 0 0 0 0 0 0 0 0 0 0 0 0 0 0 0
0 0 0 0 0 0 0 0 0 0 0 0 0 0 0 0 0 0 0 0 0 0 0 0 0 0 0 0 0 0 0 0 0 0 0 0 0 0 0 0 0 0 0 0
0 0 0 0 0 0 0 0 0 0 0 0 0 0 0 0 0 0 0 0 0 0 0 0 0 0 0 0 0 0 0 0 0 0 0 0 0 0 0 0 0 0 0 0
Wind_Speed
4 5 11 17 19 14 10 11 13 15 8 7 14 20 21 19 13 14 17 18 20 23 25 11 11 14 14 14 15 18 18 18 16 13 12 11 11 9 7 7 9 9 8 8
3 12 19 14 8 9 11 14 17 13 11 9 13 21 16 18 20 17 18 20 22 25 22 9 9 10 15 18 18 19 20 21 20 15 11 6 6 5 5 6 8 9 9 8
17 9 10 11 7 8 12 14 20 15 8 7 11 15 11 13 16 16 16 19 24 27 24 14 9 11 13 17 20 19 21 19 17 13 9 7 5 4 4 7 8 8 9 8
12 7 8 11 12 13 21 13 15 12 8 8 5 20 10 11 13 15 19 20 24 25 18 15 10 10 14 16 15 16 17 17 14 15 15 17 13 12 12 8 8 8 9 9
10 5 9 13 17 15 19 6 5 5 6 7 5 14 12 7 10 15 20 21 22 22 15 13 11 11 10 11 13 14 15 15 14 16 16 16 12 8 5 6 9 8 7 8
10 6 8 11 7 9 7 2 3 3 1 12 10 13 18 11 13 13 18 19 20 22 14 9 6 7 8 9 10 12 15 15 15 17 17 18 16 12 10 10 11 9 6 7
8 6 6 5 3 2 5 5 3 5 3 15 9 12 12 10 12 16 17 18 21 18 9 6 9 10 12 14 14 13 15 15 17 19 20 21 18 17 16 13 13 12 9 8
6 13 8 7 11 9 8 11 12 10 11 13 4 14 10 9 10 11 14 15 14 9 5 8 10 11 13 14 15 15 17 15 17 19 19 16 14 13 12 13 12 14 11 10
8 14 3 7 5 8 6 9 9 7 7 11 12 11 10 7 9 11 13 14 15 11 7 6 6 8 10 13 16 17 18 17 18 18 15 14 15 15 13 11 10 9 7 8
5 10 8 2 1 3 8 6 4 7 8 10 14 14 9 6 8 8 9 10 11 8 6 5 6 8 9 11 13 13 16 19 16 14 14 12 13 13 10 10 12 11 10 10
4 3 8 3 6 8 6 6 8 6 6 7 11 16 7 6 7 11 12 11 9 7 7 8 8 8 8 8 10 12 13 13 13 16 15 14 13 12 11 11 13 13 12 14
6 5 7 10 9 7 9 13 12 10 11 9 8 17 18 12 15 15 15 11 9 8 7 8 9 7 8 11 12 15 15 16 18 16 15 16 14 14 15 15 14 15 15 15
6 7 9 10 9 9 11 11 14 12 10 13 16 18 25 14 17 15 12 9 8 9 8 7 7 8 11 13 14 16 17 18 15 13 14 15 15 17 19 18 16 17 17 16
15 12 19 26 16 8 8 10 10 10 9 14 20 22 24 26 26 18 10 10 11 11 10 11 10 10 12 13 15 16 17 16 13 14 16 18 20 20 19 17 17 18 18 18
9 16 23 28 27 22 23 22 19 20 19 22 23 23 23 27 25 19 15 14 11 10 10 12 13 13 12 13 14 16 17 16 15 16 18 20 18 15 14 16 16 17 17 17
8 11 16 25 26 27 31 31 32 34 31 30 29 30 26 24 23 25 26 20 14 13 14 14 13 13 13 14 16 16 17 16 15 18 19 16 14 14 16 16 16 16 16 15
7 9 16 22 20 23 26 25 32 29 25 27 31 22 15 16 19 20 15 19 19 19 20 21 21 21 18 16 16 17 17 13 14 17 15 13 15 16 17 16 17 18 17 16
13 17 13 14 14 26 13 8 18 25 26 19 12 16 17 19 21 7 17 22 22 20 20 18 19 22 23 21 17 14 10 9 13 13 13 14 16 16 16 17 18 18 15 16
16 15 12 11 19 18 3 12 15 13 3 15 13 14 17 20 19 4 19 21 17 16 15 13 13 14 19 20 18 11 6 6 9 12 14 15 16 16 17 19 18 14 15 14
3 4 6 9 15 13 5 14 19 14 4 13 12 13 16 18 15 14 22 23 18 16 14 14 15 14 15 17 15 11 6 4 8 8 8 9 11 13 15 15 13 10 12 13
5 6 7 10 10 5 3 9 11 6 8 11 8 9 10 10 10 16 20 18 14 14 15 16 16 14 13 13 12 11 9 7 4 1 5 8 9 11 11 11 11 12 12 13
2 4 4 3 6 8 9 13 5 7 7 7 9 8 9 11 13 14 16 18 18 18 16 15 16 17 13 10 9 11 12 7 2 3 5 7 8 8 9 11 12 13 14 14
7 7 5 6 8 14 18 11 9 4 4 4 6 8 11 13 15 16 16 18 19 19 18 16 16 19 16 11 8 11 12 5 2 3 5 7 8 8 9 11 12 12 12 12
6 4 5 8 12 13 14 15 5 1 2 4 5 7 9 12 15 16 16 16 18 18 17 16 18 19 19 16 12 12 10 6 7 8 8 9 10 10 10 10 11 12 13 13
10 6 7 11 16 14 11 8 3 2 3 6 8 9 11 12 15 16 15 15 15 17 16 16 16 19 21 20 19 15 9 7 10 10 10 11 12 12 12 12 12 14 13 15
11 14 15 15 15 12 13 6 2 3 5 7 11 14 13 12 16 17 16 16 16 18 17 17 19 20 21 19 20 18 11 9 11 10 11 10 10 10 10 11 10 19 16 21
Wind_Direction
174 148 206 218 212 221 228 235 242 250 247 205 232 246 256 269 265 257 260 262 261 262 263 240 209 206 202 196 189 183 178 173 169 172 173 174 181 176 175 176 173 172 170 166
136 224 222 229 222 232 245 253 259 267 258 241 251 256 254 255 259 255 256 261 263 262 266 240 216 205 198 194 187 181 180 176 179 181 177 166 150 160 171 171 175 176 175 173
215 226 219 232 234 228 235 232 250 256 292 296 292 277 249 250 253 260 258 256 260 261 267 262 221 209 196 191 185 183 181 178 177 163 146 129 116 110 164 185 183 184 178 175
243 244 196 210 224 218 254 230 245 260 272 265 241 286 253 240 248 253 256 256 259 261 257 255 227 203 197 193 182 179 177 175 170 163 167 170 183 190 190 179 176 177 178 177
242 220 198 216 222 209 242 250 243 253 251 274 189 268 269 194 240 248 248 251 257 262 249 239 219 203 191 175 172 173 170 171 168 171 175 183 193 189 152 149 168 177 182 179
244 235 212 215 220 214 227 99 360 33 13 272 188 235 275 169 217 236 245 248 252 259 255 232 203 169 162 159 164 169 171 174 172 175 180 190 192 178 168 175 179 181 179 182
281 245 230 183 223 212 150 156 316 315 277 260 177 226 263 212 221 224 236 246 249 255 251 204 178 173 170 170 172 174 178 181 181 184 189 195 194 188 189 184 184 182 181 188
287 282 217 200 205 214 199 178 196 226 248 271 204 240 256 249 263 274 272 268 274 286 244 211 194 183 180 179 177 179 185 188 189 194 198 196 192 193 196 188 188 191 191 185
232 268 244 208 204 173 176 211 213 216 265 280 264 266 297 287 288 280 279 283 284 283 259 237 203 185 180 181 187 189 189 192 196 199 196 196 196 197 195 185 183 188 179 168
225 276 303 328 168 238 186 184 144 177 208 245 270 271 262 256 266 296 316 313 302 290 257 227 209 203 196 193 193 196 199 199 197 195 197 199 201 202 189 175 184 181 172 167
184 238 302 317 207 224 201 203 206 207 198 216 261 272 225 230 271 311 315 308 289 263 240 229 226 215 202 196 197 205 209 202 195 197 197 195 195 191 184 185 184 178 173 170
174 177 243 259 250 237 229 221 205 214 229 217 233 262 266 258 278 285 283 279 272 254 238 232 232 224 211 209 208 210 211 211 210 201 194 197 191 185 190 192 184 176 175 173
197 192 249 268 267 227 218 219 219 224 229 230 238 251 266 261 266 262 257 262 272 277 274 266 252 237 229 224 218 216 215 217 212 197 195 195 192 193 197 193 182 176 174 173
258 221 234 248 247 238 229 226 214 207 223 238 237 247 263 271 271 270 261 256 253 258 269 275 268 251 239 231 224 221 221 217 208 198 199 200 200 200 197 188 181 178 174 174
254 246 243 247 249 247 251 257 255 247 243 248 253 254 256 267 278 290 293 282 271 269 271 267 265 260 248 236 230 224 225 216 205 202 204 207 203 195 184 181 179 176 175 177
302 280 272 263 256 252 250 252 256 257 258 260 264 265 266 276 288 291 291 303 330 342 337 323 300 278 261 245 238 228 225 215 199 203 208 203 188 182 182 179 175 173 172 172
258 273 287 286 289 283 263 251 256 260 264 266 268 280 320 329 316 312 353 28 18 5 357 351 343 327 301 275 255 243 230 210 197 204 203 189 181 181 180 175 174 174 173 171
250 263 266 272 273 266 269 253 258 263 265 285 328 17 12 352 322 6 40 11 354 349 344 339 335 333 324 303 280 259 241 203 198 200 195 185 183 181 175 175 178 176 171 175
232 248 263 266 267 269 292 8 338 299 296 41 23 12 6 354 338 357 6 349 331 327 324 321 320 322 326 324 316 296 255 207 197 199 195 188 183 178 177 181 181 173 170 174
327 313 282 281 283 284 30 350 329 304 188 44 25 11 358 356 342 319 327 325 323 323 326 324 322 321 325 328 330 322 297 237 218 210 192 176 177 178 182 181 173 166 166 169
335 303 258 258 260 235 104 354 13 3 307 336 347 343 335 325 296 295 308 315 317 316 317 319 317 315 316 321 329 328 314 289 283 177 149 158 171 175 172 165 164 161 163 164
311 299 288 296 268 248 357 1 352 281 282 305 318 325 319 307 303 306 312 315 318 317 316 316 314 313 313 315 319 312 300 294 290 149 150 159 163 163 163 162 162 164 164 165
229 217 211 220 255 294 306 304 293 284 290 292 300 313 316 311 310 316 317 314 313 314 314 315 313 311 310 310 298 291 291 283 215 175 172 166 162 164 167 167 166 169 171 172
254 251 253 267 271 274 283 288 273 297 285 297 295 298 302 300 303 305 306 305 306 306 308 314 315 311 308 310 301 283 277 233 205 197 187 177 174 175 174 174 174 180 184 184
229 244 246 260 274 279 265 255 234 240 273 288 296 297 297 298 298 301 301 298 298 301 306 308 306 303 302 305 303 300 279 223 216 208 194 186 186 184 184 189 193 195 199 195
234 248 255 259 264 270 279 265 241 265 284 295 300 299 299 297 295 296 293 295 298 299 302 304 301 297 297 300 298 300 291 241 222 215 204 196 191 191 189 190 199 212 205 209